Location: Karcze
(52.0945°N, 22.4786°E)
Time: 12:44:55
(UTC+00:00)

SL-08 R/B - Pass Details

Date: 14 July 2020
Orbit: 675 x 739 km, 98.4° (Epoch: 07 August)

Event Time Altitude Azimuth Distance (km) Brightness Sun altitude
Rises 01:22:33 0° 173° (S) 3,073 6.2 -7.8°
Reaches altitude 10° 01:24:48 10° 177° (S) 2,169 5.4 -7.6°
Maximum altitude 01:29:31 62° 258° (WSW) 804 3.4 -7.1°
Drops below altitude 10° 01:34:22 10° 339° (NNW) 2,226 6.3 -6.7°
Sets 01:36:42 0° 343° (NNW) 3,161 7.2 -6.4°
